AXB631 VOMM-VOHS

Flight info

Callsign AXB631
Flight time N/A
Altitude 36000
Route KAMGU2A KAMGU W20 LEDOB LEDOB6
Aircraft B738/M-SDE2E3FGHIRWXY/LB1

Departure

Time 2026-04-23 10:48
Airport Chennai International Airport (VOMM)

Arrival

Time N/A
Airport Rajiv Gandhi International Airport (VOHS)
Time Latitude Longitude Altitude Speed Heading
2026-04-23 10:28 12.98348 80.16312 60 ft 0 kts 158°
2026-04-23 10:38 12.98358 80.16308 60 ft 2 kts 158°
2026-04-23 10:39 12.98371 80.16303 60 ft 2 kts 159°
2026-04-23 10:39 12.98386 80.16299 60 ft 2 kts 181°
2026-04-23 10:39 12.98399 80.16302 60 ft 2 kts 197°
2026-04-23 10:39 12.98413 80.16308 60 ft 2 kts 214°
2026-04-23 10:40 12.98423 80.16318 60 ft 2 kts 231°
2026-04-23 10:40 12.98431 80.16329 60 ft 0 kts 246°
2026-04-23 10:40 12.98433 80.16335 60 ft 1 kts 249°
2026-04-23 10:40 12.98433 80.16336 60 ft 0 kts 249°
2026-04-23 10:42 12.98427 80.16318 60 ft 7 kts 249°
2026-04-23 10:42 12.98410 80.16273 60 ft 6 kts 250°
2026-04-23 10:42 12.98397 80.16238 60 ft 4 kts 245°
2026-04-23 10:42 12.98389 80.16215 60 ft 7 kts 252°
2026-04-23 10:44 12.98376 80.16174 60 ft 14 kts 252°
2026-04-23 10:44 12.98340 80.16079 60 ft 14 kts 248°
2026-04-23 10:44 12.98306 80.15991 60 ft 12 kts 248°
2026-04-23 10:44 12.98290 80.15888 60 ft 13 kts 282°
2026-04-23 10:45 12.98306 80.15836 60 ft 12 kts 289°
2026-04-23 10:45 12.98333 80.15755 60 ft 11 kts 286°
2026-04-23 10:45 12.98410 80.15465 60 ft 1 kts 286°
2026-04-23 10:45 12.98420 80.15438 60 ft 0 kts 297°
2026-04-23 10:46 12.98434 80.15430 60 ft 7 kts 343°
2026-04-23 10:46 12.98462 80.15447 60 ft 4 kts 52°
2026-04-23 10:47 12.98478 80.15469 60 ft 3 kts 53°
2026-04-23 10:47 12.98497 80.15505 60 ft 11 kts 68°
2026-04-23 10:47 12.98554 80.15657 60 ft 49 kts 70°
2026-04-23 10:47 12.98774 80.16246 60 ft 121 kts 69°
2026-04-23 10:48 12.99146 80.17218 114 ft 169 kts 71°
2026-04-23 10:48 12.99576 80.18302 855 ft 164 kts 71°
2026-04-23 10:48 12.99983 80.19366 1527 ft 167 kts 71°
2026-04-23 10:48 13.00584 80.20395 1966 ft 180 kts 46°
2026-04-23 10:49 13.01783 80.20859 2253 ft 202 kts 360°
2026-04-23 10:49 13.03181 80.20366 2372 ft 232 kts 330°
2026-04-23 10:49 13.04599 80.19413 2568 ft 256 kts 330°
2026-04-23 10:49 13.06247 80.18621 3035 ft 270 kts 343°
2026-04-23 10:50 13.08014 80.18105 3783 ft 274 kts 348°
2026-04-23 10:50 13.09885 80.17636 4486 ft 279 kts 349°
2026-04-23 10:50 13.11723 80.17200 5234 ft 279 kts 349°
2026-04-23 10:50 13.13579 80.16771 5816 ft 281 kts 349°
2026-04-23 10:51 13.15537 80.16328 5780 ft 292 kts 349°
2026-04-23 10:51 13.17487 80.15886 5754 ft 282 kts 349°
2026-04-23 10:51 13.19368 80.15462 5752 ft 282 kts 350°
2026-04-23 10:51 13.21293 80.15095 5749 ft 282 kts 356°
2026-04-23 10:52 13.23254 80.14974 5750 ft 282 kts 359°
2026-04-23 10:52 13.25204 80.14870 5750 ft 282 kts 359°
2026-04-23 10:52 13.27154 80.14750 5750 ft 282 kts 359°
2026-04-23 10:52 13.29105 80.14632 5750 ft 282 kts 359°
2026-04-23 10:53 13.31096 80.14362 6024 ft 299 kts 344°
2026-04-23 10:53 13.32959 80.13527 7102 ft 291 kts 336°
2026-04-23 10:53 13.34770 80.12666 7886 ft 293 kts 338°
2026-04-23 10:53 13.36609 80.11857 8745 ft 292 kts 339°
2026-04-23 10:54 13.38457 80.11050 9542 ft 294 kts 339°
2026-04-23 10:54 13.40344 80.10229 10180 ft 302 kts 339°
2026-04-23 10:54 13.42369 80.09354 10293 ft 329 kts 339°
2026-04-23 10:54 13.44499 80.08434 10879 ft 336 kts 339°
2026-04-23 10:55 13.46667 80.07498 11479 ft 344 kts 339°
2026-04-23 10:55 13.48868 80.06548 12230 ft 346 kts 338°
2026-04-23 10:55 13.51067 80.05599 12922 ft 350 kts 339°
2026-04-23 10:55 13.53314 80.04630 13617 ft 353 kts 339°
2026-04-23 10:56 13.55562 80.03659 14307 ft 357 kts 339°
2026-04-23 10:56 13.57823 80.02684 14979 ft 360 kts 339°
2026-04-23 10:56 13.60137 80.01685 15644 ft 364 kts 339°
2026-04-23 10:56 13.62486 80.00671 16289 ft 368 kts 339°
2026-04-23 10:57 13.64846 79.99651 16914 ft 371 kts 339°
2026-04-23 10:57 13.67206 79.98632 17516 ft 375 kts 339°
2026-04-23 10:57 13.69599 79.97599 18103 ft 378 kts 339°
2026-04-23 10:57 13.72015 79.96555 18676 ft 382 kts 339°
2026-04-23 10:58 13.74473 79.95493 19240 ft 385 kts 339°
2026-04-23 10:58 13.76938 79.94427 19781 ft 388 kts 339°
2026-04-23 10:58 13.79454 79.93340 20336 ft 391 kts 339°
2026-04-23 10:58 13.81966 79.92253 20848 ft 395 kts 339°
2026-04-23 10:59 13.84470 79.91171 21356 ft 398 kts 339°
2026-04-23 10:59 13.87040 79.90063 21861 ft 401 kts 339°
2026-04-23 10:59 13.89600 79.88955 22336 ft 404 kts 339°
2026-04-23 10:59 13.92163 79.87843 22808 ft 407 kts 339°
2026-04-23 11:00 13.94765 79.86716 23239 ft 411 kts 339°
2026-04-23 11:00 13.97402 79.85574 23721 ft 412 kts 339°
2026-04-23 11:00 14.00025 79.84437 24181 ft 415 kts 339°
2026-04-23 11:00 14.02667 79.83292 24618 ft 417 kts 339°
2026-04-23 11:01 14.05279 79.82159 25033 ft 420 kts 339°
2026-04-23 11:01 14.07980 79.80988 25435 ft 423 kts 339°
2026-04-23 11:01 14.10610 79.79847 25832 ft 425 kts 339°
2026-04-23 11:01 14.13364 79.78653 26225 ft 428 kts 340°
2026-04-23 11:02 14.16098 79.77467 26602 ft 430 kts 340°
2026-04-23 11:02 14.18822 79.76285 26966 ft 433 kts 340°
2026-04-23 11:02 14.21594 79.75082 27338 ft 435 kts 340°
2026-04-23 11:02 14.24375 79.73873 27673 ft 438 kts 340°
2026-04-23 11:03 14.27176 79.72657 28024 ft 440 kts 340°
2026-04-23 11:03 14.29973 79.71442 28355 ft 443 kts 340°
2026-04-23 11:03 14.32761 79.70230 28677 ft 445 kts 340°
2026-04-23 11:03 14.35639 79.68980 29000 ft 447 kts 340°
2026-04-23 11:04 14.38465 79.67750 29305 ft 449 kts 340°
2026-04-23 11:04 14.41356 79.66493 29602 ft 452 kts 340°
2026-04-23 11:04 14.44207 79.65253 29915 ft 453 kts 340°
2026-04-23 11:04 14.47065 79.64008 30460 ft 449 kts 340°
2026-04-23 11:05 14.49897 79.62775 30880 ft 447 kts 340°
2026-04-23 11:05 14.52760 79.61528 31251 ft 447 kts 340°
2026-04-23 11:05 14.55597 79.60293 31655 ft 446 kts 340°
2026-04-23 11:05 14.58436 79.59055 32029 ft 445 kts 340°
2026-04-23 11:06 14.64080 79.56591 32697 ft 445 kts 340°
2026-04-23 11:06 14.66881 79.55355 33034 ft 445 kts 339°
2026-04-23 11:06 14.69720 79.54107 33416 ft 443 kts 340°
2026-04-23 11:07 14.72501 79.52898 33757 ft 443 kts 340°
2026-04-23 11:07 14.75322 79.51688 34116 ft 441 kts 340°
2026-04-23 11:07 14.78120 79.50487 34496 ft 439 kts 340°
2026-04-23 11:07 14.80912 79.49281 34784 ft 440 kts 340°
2026-04-23 11:08 14.83685 79.48082 35017 ft 441 kts 340°
2026-04-23 11:08 14.86510 79.46853 35346 ft 440 kts 340°
2026-04-23 11:08 14.89248 79.45655 35661 ft 438 kts 340°
2026-04-23 11:09 14.94827 79.43217 35721 ft 438 kts 339°
2026-04-23 11:09 15.00328 79.40767 35723 ft 433 kts 339°
2026-04-23 11:10 15.05785 79.38293 35723 ft 432 kts 338°
2026-04-23 11:10 15.11062 79.35919 35723 ft 433 kts 339°